Reflectivity
-20 -20 -20 -20 -20 -20 -20 -20 -20 -20 -20 -20 -20 -20 -20 -20 -20 -20 -20 -20 -20 -20 -20 -20 -20 -20 -20 -20 -20 2 -17 -20 -2 -20 -20 -12 -11 -20 -6 -20 -20 -20 -20
-20 -20 -20 -20 -20 -20 -20 -20 -20 -20 -20 -20 -20 -20 -20 -20 -20 -20 -20 -20 -20 -20 -20 -20 -20 -20 -20 -20 -20 6 -20 -20 -20 -10 -20 -15 -20 -20 -20 -20 -20 -4 -20
-20 -20 -20 -20 -20 -20 -20 -20 -20 -20 -20 -20 -20 -20 -20 -20 -20 -20 -20 -20 -20 -20 -20 -20 -20 -20 -20 -20 -20 -6 -1 -14 -15 -18 -18 -6 -14 -20 -20 -20 -20 -15 -0
-20 -20 -20 -20 -20 -20 -20 -20 -20 -20 -20 -20 -20 -20 -20 -20 -20 -20 -20 -20 -20 -20 -20 -20 -20 -20 -20 -20 -20 5 9 5 1 -18 -11 -20 -20 -4 -20 -20 -20 -20 -18
-20 -20 -20 -20 -20 -20 -20 -20 -20 -20 -20 -20 -20 -20 -20 -20 -20 -20 -20 -20 -20 -20 -20 -20 -20 -20 -20 -20 -20 -20 -5 -17 -19 17 -2 11 -20 -20 -20 -19 -20 -20 -20
-20 -20 -20 -20 -20 -20 -20 -20 -20 -20 -20 -20 -20 -20 -20 -20 -20 -20 -20 -20 -20 -20 -20 -20 -20 -20 -20 -20 -20 -20 -20 14 17 15 -4 12 -20 -15 -20 -20 -20 -20 -20
-20 -20 -20 -20 -20 -20 -20 -20 -20 -20 -20 -20 -20 -20 -20 -20 -20 -20 -20 -20 -20 -20 -20 -20 -20 -20 -20 -20 -20 -20 -20 -20 -12 -15 9 7 12 6 -20 -5 -20 -20 -20
-20 -20 -20 -20 -20 -20 -20 -20 -20 -20 -20 -20 -20 -20 -20 -20 -20 -20 -20 -20 -20 -20 -20 -20 -20 -20 -20 -20 -20 -20 -20 -20 -20 3 -3 18 8 24 9 -20 7 -20 -20
-20 -20 -20 -20 -20 -20 -20 -20 -20 -20 -20 -20 -20 -20 -20 -20 -20 -20 -20 -20 -20 -20 -20 -20 -20 -20 -20 -20 -20 -20 -20 -20 -20 -18 -20 -17 11 -13 31 -9 7 -15 17
-20 -20 -20 -20 -20 -20 -20 -20 -20 -20 -20 -20 -20 -20 -20 -20 -20 -20 -20 -19 -20 -20 -20 -20 -20 -20 -20 -20 -20 -20 -20 -20 -20 12 -3 5 -17 5 -6 24 3 16 6
-20 -20 -20 -20 -20 -20 -20 -20 -20 -20 -20 -20 -20 -20 -20 -20 -20 -20 -20 -20 -20 -20 -20 -20 -20 -20 -20 -20 -20 -20 -20 -20 -20 -20 2 -0 12 -19 -7 14 -1 16 16
-20 -20 -20 -20 -20 -20 -20 -20 -20 -20 -20 -20 -20 -20 -20 -20 -20 -20 -20 -20 -20 -20 -20 -20 -20 -20 -20 -20 -11 -20 -20 -20 -20 -20 -20 -20 2 -18 7 2 -0 4 18
-20 -20 -20 -20 -20 -20 -20 -20 -20 -20 -20 -20 -20 -20 -20 -20 -20 -20 -20 -20 -20 -20 -20 -20 -20 -20 -20 -19 -17 -6 -14 -10 -7 -5 -1 -7 17 14 -9 -1 -12 12 1
-20 -20 -20 -20 -20 -20 -20 -20 -20 -20 -20 -20 -20 -20 -20 -20 -20 -20 -20 -20 -20 -20 -20 -20 -20 -20 -20 -20 -14 -17 -20 -10 -2 13 -2 15 22 15 -5 17 23 20 25
-20 -20 -20 -20 -20 -20 -20 -20 -20 -20 -20 -20 -20 -20 -20 -20 -20 -20 -20 -20 -14 -17 -20 -20 -20 -20 -18 -5 -10 -20 -6 -7 -5 8 -17 -5 -9 19 13 10 19 40 13
-20 -20 -20 -20 -20 -20 -20 -20 -20 -20 -20 -20 -20 -20 -20 -20 -20 -20 -20 -20 -20 -20 -12 -8 -19 -20 -19 0 -6 4 -20 24 -13 23 20 23 25 21 21 21 27 29 6
-20 -20 -20 -20 -20 -20 -20 -20 -20 -20 -20 -20 -20 -20 -20 -20 -20 -20 -20 -20 -20 -10 -1 -10 -20 -1 -12 4 7 11 9 -7 24 5 24 14 8 -2 18 18 26 16 10
-20 -7 -14 -20 -20 -20 -20 -20 -20 -20 -20 -20 -20 -20 -20 -20 -20 -20 -20 -20 2 7 -2 -4 -5 4 -9 -11 -5 17 6 10 30 19 -20 -2 -8 -3 6 14 23 26 21
-20 -20 -20 -20 -20 -20 -20 -20 -20 -9 -20 -20 -20 -20 -20 -20 -20 -20 -20 -20 6 9 1 -0 7 -14 -20 10 9 18 -9 5 -9 -19 -20 -12 -7 -13 13 12 20 31 30
-10 -20 -20 -20 -20 -20 -20 -20 -20 -20 -17 -20 -20 -20 -6 -20 -20 -20 -20 -20 -9 -5 -20 -12 -9 8 -16 9 4 22 17 -6 -7 -20 -20 -1 -20 -20 -20 -20 7 20 5
-20 -20 -20 -20 -5 -20 -20 -20 -20 -20 -4 -20 -20 -20 -1 -9 -20 -20 -20 -18 -6 -14 -6 -17 -11 -5 -5 -10 2 6 -20 -20 -18 2 -19 -20 -20 -20 -20 -20 -20 -20 -20
-20 -20 -20 -20 -20 -20 -20 -20 -20 -20 -19 -18 -20 -20 -4 -13 -20 -20 -11 -17 -18 -20 -20 -20 -20 -19 -16 -16 -14 -14 -20 -20 -20 -20 -20 -20 -20 -20 -20 -20 -20 -20 -20
-20 -20 -20 -20 -20 -20 -20 -20 -20 -20 -20 12 -10 5 -8 -20 -20 -20 -13 -20 -20 -20 -20 -20 -20 -20 -20 -20 -20 -20 -20 -20 -20 -20 -20 -20 -20 -20 -20 -20 -20 -20 -20
-20 -20 -20 -20 -20 -20 -20 -20 -20 -20 -20 12 18 17 -19 -18 -20 -20 -20 -20 -20 -20 -20 -20 -20 -20 -20 -20 -20 -20 -20 -20 -20 -20 -20 -20 -20 -20 -20 -20 -20 -20 -20
-20 -20 -20 -20 -20 -20 -20 -20 -20 -20 -20 4 26 20 -15 -19 -17 -20 -20 -20 -20 -20 -20 -20 -20 -20 -20 -20 -20 -20 -20 -20 -20 -20 -20 -20 -20 -20 -20 -20 -20 -20 -20
-20 -20 -20 -20 -20 -20 -20 -20 -20 -20 -20 -17 28 21 11 -20 -19 -20 -20 -20 -20 -20 -20 -20 -20 -20 -20 -20 -20 -20 -20 -20 -20 -20 -20 -20 -20 -20 -20 -20 -20 -20 -20
Wind_Speed
3 4 5 6 6 5 6 5 4 4 4 3 3 3 3 5 3 5 7 7 5 5 4 3 4 3 4 5 5 4 5 5 3 1 2 3 4 6 5 5 5 8 7
6 6 6 5 3 5 5 6 5 5 4 3 2 1 3 2 3 4 6 6 6 6 5 5 4 4 4 6 5 5 2 4 5 4 1 3 4 5 6 5 4 7 5
11 8 7 5 5 5 5 5 4 5 5 5 3 3 2 2 2 5 6 6 8 7 7 7 6 5 4 5 7 6 7 5 6 9 5 2 6 1 1 3 3 2 3
7 8 7 6 5 5 4 5 5 5 4 5 5 5 3 4 3 6 5 7 8 8 5 5 6 8 5 6 7 6 7 7 5 3 7 2 1 3 2 2 2 1 4
14 12 8 7 6 5 4 4 3 5 5 5 5 4 5 4 6 6 9 9 8 8 8 8 7 7 6 7 8 9 8 6 7 6 2 5 3 1 2 2 1 2 3
8 9 7 7 6 4 3 3 5 4 5 5 6 7 7 8 8 9 8 8 8 7 9 7 7 8 7 8 8 10 10 9 7 6 7 5 5 5 4 2 3 3 2
8 8 9 7 6 4 3 3 5 5 6 8 8 8 8 8 9 9 7 9 8 7 9 9 8 8 8 8 8 9 10 10 8 8 7 8 8 4 7 8 4 4 2
6 6 5 6 6 5 4 4 4 5 7 8 9 8 7 5 5 6 6 6 6 8 10 9 9 10 9 8 7 7 8 9 8 9 8 8 8 6 6 5 6 3 3
6 7 5 5 4 4 4 4 5 6 6 7 7 7 7 6 8 8 7 6 7 7 11 12 10 11 12 11 9 6 8 9 10 10 9 7 6 6 7 7 7 8 6
7 7 6 5 3 3 3 3 5 5 5 7 7 6 7 7 7 8 9 10 10 10 11 12 11 11 12 11 10 9 10 10 8 8 10 9 7 5 6 8 8 8 9
6 6 6 4 4 2 1 3 3 4 5 6 7 7 7 8 7 7 8 9 10 10 11 12 12 12 13 13 10 11 12 12 12 12 11 12 10 7 7 6 7 8 7
5 5 6 5 2 1 0 2 3 4 4 5 6 7 8 7 7 8 9 9 10 10 11 11 10 11 11 11 11 11 10 11 13 13 12 12 8 11 10 8 10 9 9
5 5 5 4 2 1 3 3 3 4 6 6 6 7 7 7 8 8 9 9 10 10 11 11 11 11 10 10 10 11 10 10 10 10 11 10 10 10 7 9 8 7 5
6 4 3 2 1 3 3 3 4 4 5 6 6 6 7 8 8 8 8 9 9 10 10 11 11 10 10 9 9 9 9 9 8 9 8 8 9 10 8 8 8 5 5
5 4 2 1 3 3 3 2 3 4 5 6 5 6 7 7 7 7 8 8 8 8 9 9 9 9 8 7 10 7 5 6 6 5 5 6 7 8 9 7 7 8 5
5 4 1 2 3 1 2 3 3 4 4 5 5 6 6 7 6 6 7 7 8 8 8 8 8 8 6 14 13 5 5 6 5 5 5 6 6 3 4 5 12 11 9
6 4 1 2 1 2 2 2 3 3 4 5 5 6 6 6 6 6 7 9 8 8 8 8 8 9 9 16 14 12 7 8 7 7 6 7 8 9 8 13 13 10 8
6 4 2 1 1 1 2 2 1 3 4 5 5 5 5 5 5 5 7 7 6 7 7 8 8 7 8 14 14 15 9 9 10 9 9 8 8 9 10 10 11 9 9
3 3 2 1 1 2 2 2 2 2 3 4 5 4 4 4 5 6 6 6 5 5 6 7 7 7 8 13 14 11 8 10 10 8 8 8 9 12 13 10 10 10 10
1 3 2 1 2 2 1 2 3 3 3 4 4 4 3 3 4 4 4 3 3 4 5 7 7 10 7 12 13 9 6 8 7 9 10 15 10 12 11 9 9 11 7
2 1 2 4 4 3 1 3 4 5 2 3 4 3 3 2 3 2 2 3 3 3 5 6 7 8 9 9 13 13 6 5 7 6 7 7 15 16 16 14 9 9 10
5 5 3 2 3 4 2 3 5 4 1 1 3 2 1 2 2 2 2 2 3 4 6 6 6 6 8 12 14 16 15 11 9 8 6 10 19 19 19 14 17 15 11
5 3 3 4 4 4 1 4 4 3 3 2 2 2 1 1 2 2 3 2 3 3 4 4 4 5 5 6 16 17 18 17 10 7 14 19 18 18 15 16 14 10 5
6 4 5 6 6 4 4 5 5 4 4 3 3 2 1 1 2 2 1 1 2 2 3 3 3 4 5 5 5 5 6 12 9 10 9 12 13 13 10 8 7 5 4
6 5 7 6 7 6 6 5 4 5 5 4 3 3 1 2 1 2 2 1 1 1 3 2 3 3 4 3 6 6 5 5 8 7 4 4 4 5 5 4 4 3 4
8 7 8 7 7 6 6 6 5 6 6 4 3 3 2 2 2 2 3 8 7 8 8 6 4 2 8 9 11 11 10 8 5 4 3 4 4 4 4 4 3 3 4
Wind_Direction
175 141 140 132 123 108 110 101 90 45 35 13 2 6 357 335 342 337 332 322 314 310 301 296 307 303 273 269 247 236 230 219 200 134 270 263 250 241 243 249 257 254 249
155 151 143 150 130 119 107 91 69 43 40 33 13 343 321 312 303 323 327 332 336 329 316 309 306 298 276 257 244 220 215 226 196 197 119 261 216 220 223 229 231 248 232
166 163 151 145 129 110 97 78 47 32 34 21 359 350 333 308 332 348 335 335 325 318 308 294 292 283 266 256 254 227 224 228 199 217 223 190 236 214 127 227 240 223 235
156 155 151 141 135 117 93 65 40 27 28 18 24 17 348 331 319 316 309 314 326 326 325 311 300 287 272 259 261 238 217 230 228 210 237 246 190 221 237 199 231 278 255
163 160 153 138 122 120 86 59 40 37 23 19 21 3 340 315 317 317 322 322 324 323 319 319 313 288 275 266 260 260 245 223 233 219 178 201 188 169 216 280 201 245 227
144 129 121 126 123 118 98 61 31 27 20 14 6 359 338 329 325 325 322 319 314 314 314 308 302 294 283 270 264 258 255 251 233 237 234 210 185 192 204 203 209 232 212
136 137 139 138 136 120 70 47 25 18 11 8 353 342 334 329 324 323 316 316 312 309 305 307 305 296 284 274 262 255 250 253 256 243 248 237 231 173 208 227 206 215 187
130 139 141 132 126 107 71 31 20 16 12 350 340 336 332 324 309 304 304 299 301 303 305 304 302 294 289 285 268 253 249 237 240 246 249 265 229 221 193 199 199 196 223
140 133 119 113 113 97 68 29 19 15 357 339 333 330 318 323 313 311 299 292 299 302 308 310 304 303 298 287 275 258 254 247 241 236 230 242 254 212 225 215 218 225 215
138 133 135 128 95 59 51 54 33 352 330 329 327 318 311 318 323 318 318 322 318 314 309 305 298 295 292 286 276 260 255 252 249 244 238 228 226 224 222 224 226 226 234
146 137 131 132 117 101 43 40 1 323 318 323 320 318 324 327 330 328 323 318 316 315 307 303 297 290 288 278 269 263 256 247 249 242 243 243 223 213 206 217 223 224 216
136 135 142 144 146 163 352 327 307 305 309 311 318 325 329 334 336 326 321 321 325 316 308 302 294 288 282 272 265 251 242 235 240 240 234 239 234 220 205 201 213 218 210
132 133 138 156 198 324 290 282 337 315 310 318 335 338 335 333 329 325 324 330 321 319 317 311 296 292 284 271 264 250 247 236 235 240 234 233 225 221 206 205 204 202 177
141 128 126 171 264 267 278 291 311 313 315 323 343 337 333 329 326 323 327 329 329 324 321 313 306 303 306 293 280 266 242 236 237 238 235 237 227 218 198 200 192 173 158
143 130 98 340 248 271 314 303 295 319 336 325 342 333 325 322 325 326 332 328 332 329 325 329 331 336 327 324 314 275 228 239 240 224 242 231 207 197 190 181 167 165 166
144 130 139 251 233 287 267 262 309 328 330 328 330 326 327 328 333 335 337 346 348 343 340 350 340 344 345 359 10 35 55 47 57 52 42 39 44 93 151 161 168 168 157
140 123 174 262 263 300 271 301 310 313 326 330 328 331 336 330 341 344 0 5 352 348 352 352 349 1 5 22 33 52 61 71 52 51 48 54 37 48 73 84 85 93 105
140 147 119 14 287 310 308 285 301 309 330 333 326 332 333 334 346 359 13 357 351 351 356 348 359 8 15 30 49 57 55 63 54 49 52 61 59 66 76 76 69 57 54
123 119 86 263 279 335 299 286 307 307 321 333 323 331 330 335 356 18 7 350 358 354 358 350 360 14 30 46 59 61 63 67 61 61 63 68 75 86 93 90 94 83 72
75 77 54 45 46 15 325 311 298 290 309 323 307 316 315 350 0 11 8 335 352 358 2 0 0 23 28 54 67 70 81 80 75 64 64 70 78 83 92 98 107 93 80
27 85 75 35 352 325 297 303 288 275 275 301 301 307 307 348 2 1 16 360 7 22 19 6 7 16 33 55 70 67 59 69 77 66 60 66 81 87 86 79 79 94 104
345 19 25 322 323 303 235 289 279 266 224 262 285 279 312 14 5 355 354 22 32 51 55 30 26 24 20 59 69 77 77 79 85 77 69 81 86 84 84 82 94 99 97
306 299 310 340 308 279 277 281 266 227 217 215 250 251 220 40 16 357 2 359 43 63 63 56 41 32 19 32 75 84 85 82 80 85 93 89 87 87 83 91 96 94 91
291 292 297 294 293 299 287 259 260 215 212 222 215 236 218 104 46 348 8 23 40 66 85 72 53 46 35 41 49 64 71 73 76 82 82 84 83 80 83 75 65 62 60
259 256 261 262 276 284 277 283 257 199 214 216 199 226 173 99 119 56 27 57 52 153 112 109 103 99 72 61 99 99 92 91 101 92 77 68 60 67 63 61 58 52 49
261 252 245 249 259 270 267 273 241 198 206 206 195 202 166 120 129 112 66 59 88 94 103 125 118 116 104 103 100 91 82 94 108 65 73 65 53 52 40 36 34 32 29